1998-067PB (43553 NORAD) Tracking and Keplerian Element Data

This shows tracking and keplerian element data for the satellite.

Feedback or suggestion? Click here.




ElementValue
Catalog43553
Name1998-067PB
Epoch Orbit1919
Epoch Day317.59061157
Epoch Year2018
RAAN352.6363
Inclination51.6406
Eccentricity0.0007488
Argument of Perigee52.2539
Mean Anonmoly307.913
Mean Motion15.5657991
Decay Rate7.76E-05
L11 43553U 98067PB 18317.59061157 .00007760 00000-0 11377-3 0 9996
L22 43553 51.6406 352.6363 0007488 52.2539 307.9130 15.56579910 19196

Live tracking and technical data element details for 1998-067PB (NORAD 43553). 1998-067PB can be tracked NOW for your location showing map with azimuth and elevation plus other details from your city location.

Track the satellite on the map from your city or location and see movement details for azimuth, elevation, latitude, longitude, range, height, and movement on the map or in text.







IsCatalogInMostPopularTable: catalog: 43553, numindb: 48
Update: records affected: 1



GetName: 43553 1998-067PB

Hit Count: updated at: Thu, 15 Nov 2018 04:37:33 GMT